QPF
0.00 0.00 0.00 0.00 0.00 0.00 0.00 0.00 0.00 0.01 0.01 0.03 0.03 0.03 0.04 0.03 0.03 0.02 0.02 0.01 0.01 0.01 0.00 0.00 0.01 0.00 0.00 0.01 0.01 0.01 0.01 0.01 0.02 0.02 0.03 0.03 0.03 0.03 0.03 0.04 0.04 0.03 0.02 0.02
0.00 0.00 0.00 0.00 0.00 0.00 0.00 0.00 0.00 0.01 0.02 0.03 0.04 0.03 0.04 0.03 0.03 0.02 0.01 0.01 0.01 0.01 0.00 0.00 0.00 0.01 0.01 0.01 0.01 0.02 0.03 0.04 0.05 0.05 0.05 0.05 0.05 0.04 0.04 0.03 0.03 0.02 0.02 0.01
0.00 0.00 0.00 0.00 0.01 0.00 0.00 0.01 0.01 0.01 0.02 0.03 0.03 0.04 0.04 0.03 0.02 0.01 0.01 0.01 0.00 0.00 0.00 0.00 0.01 0.01 0.01 0.02 0.02 0.03 0.04 0.05 0.05 0.05 0.06 0.05 0.05 0.04 0.03 0.02 0.02 0.02 0.01 0.01
0.00 0.01 0.01 0.01 0.01 0.01 0.01 0.02 0.03 0.03 0.02 0.03 0.03 0.03 0.03 0.03 0.03 0.02 0.01 0.01 0.01 0.01 0.01 0.01 0.01 0.01 0.02 0.02 0.03 0.04 0.04 0.05 0.05 0.05 0.04 0.04 0.03 0.02 0.02 0.01 0.01 0.01 0.00 0.00
0.01 0.01 0.02 0.02 0.01 0.02 0.02 0.02 0.02 0.03 0.03 0.03 0.03 0.02 0.02 0.02 0.02 0.02 0.01 0.01 0.01 0.01 0.01 0.01 0.01 0.02 0.02 0.03 0.03 0.04 0.04 0.04 0.04 0.03 0.02 0.02 0.01 0.01 0.00 0.00 0.00 0.00 0.00 0.00
0.02 0.01 0.01 0.02 0.02 0.03 0.03 0.02 0.03 0.03 0.03 0.03 0.02 0.01 0.01 0.00 0.00 0.00 0.00 0.00 0.00 0.00 0.01 0.01 0.01 0.01 0.02 0.02 0.03 0.03 0.03 0.02 0.01 0.01 0.01 0.00 0.00 0.00 0.00 0.00 0.00 0.00 0.00 0.00
0.01 0.01 0.01 0.01 0.02 0.03 0.03 0.03 0.04 0.03 0.02 0.02 0.01 0.01 0.00 0.00 0.00 0.00 0.00 0.00 0.00 0.01 0.01 0.01 0.01 0.01 0.01 0.01 0.02 0.02 0.01 0.01 0.00 0.00 0.00 0.00 0.00 0.00 0.00 0.00 0.00 0.00 0.00 0.00
0.02 0.01 0.01 0.01 0.01 0.02 0.02 0.02 0.02 0.02 0.02 0.01 0.01 0.00 0.00 0.00 0.00 0.00 0.00 0.00 0.00 0.01 0.01 0.00 0.01 0.01 0.01 0.01 0.01 0.00 0.00 0.00 0.00 0.00 0.00 0.00 0.00 0.00 0.00 0.00 0.00 0.00 0.00 0.00
0.03 0.04 0.02 0.01 0.02 0.02 0.02 0.01 0.01 0.01 0.00 0.00 0.00 0.00 0.00 0.00 0.00 0.00 0.00 0.00 0.00 0.00 0.00 0.00 0.00 0.00 0.00 0.00 0.00 0.00 0.00 0.00 0.00 0.00 0.00 0.00 0.00 0.00 0.00 0.00 0.00 0.00 0.00 0.00
0.01 0.01 0.01 0.01 0.01 0.01 0.01 0.01 0.00 0.00 0.00 0.00 0.00 0.00 0.00 0.00 0.00 0.00 0.00 0.00 0.00 0.00 0.00 0.00 0.00 0.00 0.00 0.00 0.00 0.00 0.00 0.00 0.00 0.00 0.00 0.00 0.00 0.00 0.00 0.00 0.00 0.00 0.00 0.00
0.01 0.01 0.01 0.01 0.00 0.00 0.00 0.00 0.00 0.00 0.00 0.00 0.00 0.01 0.01 0.01 0.00 0.00 0.00 0.00 0.00 0.00 0.00 0.00 0.00 0.00 0.00 0.00 0.00 0.00 0.00 0.00 0.00 0.00 0.00 0.00 0.00 0.00 0.00 0.00 0.00 0.00 0.00 0.00
0.00 0.00 0.01 0.00 0.00 0.00 0.00 0.00 0.00 0.00 0.01 0.01 0.01 0.01 0.01 0.00 0.00 0.00 0.00 0.00 0.00 0.00 0.00 0.00 0.00 0.00 0.00 0.00 0.00 0.00 0.00 0.00 0.00 0.00 0.00 0.00 0.00 0.00 0.00 0.00 0.00 0.00 0.00 0.00
0.00 0.00 0.00 0.00 0.00 0.00 0.00 0.00 0.00 0.01 0.00 0.01 0.01 0.01 0.00 0.00 0.00 0.00 0.00 0.00 0.00 0.00 0.00 0.00 0.00 0.00 0.00 0.00 0.00 0.00 0.00 0.00 0.00 0.00 0.00 0.00 0.00 0.00 0.00 0.00 0.00 0.00 0.00 0.00
0.00 0.00 0.00 0.00 0.00 0.01 0.01 0.01 0.01 0.01 0.01 0.00 0.00 0.00 0.00 0.00 0.00 0.00 0.00 0.00 0.00 0.00 0.00 0.00 0.00 0.00 0.00 0.00 0.00 0.00 0.00 0.00 0.00 0.00 0.00 0.00 0.00 0.00 0.00 0.00 0.00 0.00 0.00 0.01
0.00 0.00 0.00 0.01 0.01 0.01 0.01 0.01 0.01 0.01 0.01 0.01 0.00 0.00 0.00 0.00 0.00 0.00 0.00 0.00 0.00 0.00 0.00 0.00 0.00 0.00 0.00 0.00 0.00 0.00 0.00 0.00 0.00 0.00 0.00 0.00 0.00 0.00 0.00 0.00 0.00 0.00 0.00 0.01
0.00 0.00 0.01 0.01 0.01 0.02 0.01 0.01 0.01 0.01 0.01 0.01 0.00 0.00 0.00 0.00 0.00 0.00 0.00 0.00 0.00 0.00 0.00 0.00 0.00 0.00 0.00 0.00 0.00 0.00 0.00 0.00 0.00 0.00 0.00 0.00 0.00 0.00 0.00 0.00 0.00 0.01 0.01 0.01
0.00 0.00 0.01 0.01 0.01 0.01 0.01 0.01 0.01 0.00 0.00 0.00 0.00 0.00 0.00 0.00 0.00 0.00 0.00 0.00 0.00 0.00 0.00 0.00 0.00 0.00 0.00 0.00 0.00 0.00 0.00 0.00 0.00 0.00 0.00 0.00 0.00 0.00 0.00 0.00 0.01 0.01 0.01 0.02
0.00 0.00 0.01 0.01 0.01 0.00 0.01 0.01 0.00 0.00 0.00 0.00 0.00 0.00 0.00 0.00 0.00 0.00 0.00 0.00 0.00 0.00 0.00 0.00 0.00 0.00 0.00 0.00 0.00 0.00 0.00 0.00 0.00 0.00 0.00 0.00 0.00 0.00 0.00 0.00 0.01 0.01 0.02 0.02
0.00 0.00 0.01 0.01 0.00 0.00 0.00 0.00 0.00 0.00 0.00 0.00 0.00 0.00 0.00 0.00 0.00 0.00 0.00 0.00 0.00 0.00 0.00 0.00 0.00 0.00 0.00 0.00 0.00 0.00 0.00 0.00 0.00 0.00 0.00 0.00 0.00 0.00 0.00 0.00 0.00 0.01 0.01 0.02
0.00 0.00 0.01 0.00 0.00 0.00 0.00 0.00 0.00 0.00 0.00 0.00 0.00 0.00 0.00 0.00 0.00 0.00 0.00 0.00 0.00 0.00 0.00 0.00 0.00 0.00 0.00 0.00 0.00 0.00 0.00 0.00 0.00 0.00 0.00 0.00 0.00 0.00 0.00 0.00 0.00 0.01 0.01 0.02
0.00 0.00 0.00 0.00 0.00 0.00 0.00 0.00 0.00 0.00 0.00 0.00 0.00 0.00 0.00 0.00 0.00 0.00 0.00 0.00 0.00 0.00 0.00 0.00 0.00 0.00 0.00 0.00 0.00 0.00 0.00 0.00 0.00 0.00 0.00 0.00 0.00 0.00 0.00 0.00 0.00 0.00 0.00 0.01
0.00 0.00 0.00 0.00 0.00 0.00 0.00 0.00 0.00 0.00 0.00 0.00 0.00 0.00 0.00 0.00 0.00 0.00 0.00 0.00 0.00 0.00 0.00 0.00 0.00 0.00 0.00 0.00 0.00 0.00 0.00 0.00 0.00 0.00 0.00 0.00 0.00 0.00 0.00 0.00 0.00 0.00 0.00 0.00
0.00 0.00 0.00 0.00 0.00 0.00 0.00 0.00 0.00 0.00 0.00 0.00 0.00 0.00 0.00 0.00 0.00 0.00 0.00 0.00 0.00 0.00 0.00 0.00 0.00 0.00 0.00 0.00 0.00 0.00 0.00 0.00 0.00 0.00 0.00 0.00 0.00 0.00 0.00 0.00 0.00 0.00 0.00 0.00
0.00 0.00 0.00 0.00 0.00 0.00 0.00 0.00 0.00 0.00 0.00 0.00 0.00 0.00 0.00 0.00 0.00 0.00 0.00 0.00 0.00 0.00 0.00 0.00 0.00 0.00 0.00 0.00 0.00 0.00 0.00 0.00 0.00 0.00 0.00 0.00 0.00 0.00 0.00 0.00 0.00 0.00 0.00 0.00
0.00 0.00 0.00 0.00 0.00 0.00 0.00 0.00 0.00 0.00 0.00 0.00 0.00 0.00 0.00 0.00 0.00 0.00 0.00 0.00 0.00 0.00 0.00 0.00 0.00 0.00 0.00 0.00 0.00 0.00 0.00 0.00 0.00 0.00 0.00 0.00 0.00 0.00 0.00 0.00 0.00 0.00 0.00 0.00
0.00 0.00 0.00 0.00 0.00 0.00 0.00 0.00 0.00 0.00 0.00 0.00 0.00 0.00 0.00 0.00 0.00 0.00 0.00 0.00 0.00 0.00 0.00 0.00 0.00 0.00 0.00 0.00 0.00 0.00 0.00 0.00 0.00 0.00 0.00 0.00 0.00 0.00 0.00 0.00 0.00 0.00 0.00 0.00
0.00 0.00 0.00 0.00 0.00 0.00 0.00 0.00 0.00 0.00 0.00 0.00 0.00 0.00 0.00 0.00 0.00 0.00 0.00 0.00 0.00 0.00 0.00 0.00 0.00 0.00 0.00 0.00 0.00 0.00 0.00 0.00 0.00 0.00 0.00 0.00 0.00 0.00 0.00 0.00 0.00 0.00 0.00 0.00
MSLP
1011.34 1011.35 1011.49 1011.74 1012.08 1012.45 1012.81 1013.13 1013.40 1013.60 1013.76 1013.91 1014.08 1014.30 1014.60 1014.99 1015.47 1016.01 1016.58 1017.15 1017.68 1018.14 1018.53 1018.83 1019.07 1019.26 1019.42 1019.56 1019.71 1019.87 1020.03 1020.21 1020.38 1020.55 1020.71 1020.87 1021.03 1021.18 1021.34 1021.49 1021.64 1021.78 1021.91 1022.01
1012.13 1012.11 1012.16 1012.29 1012.46 1012.66 1012.86 1013.06 1013.26 1013.46 1013.68 1013.95 1014.28 1014.70 1015.19 1015.74 1016.35 1016.97 1017.57 1018.13 1018.61 1019.00 1019.31 1019.55 1019.74 1019.88 1020.02 1020.16 1020.31 1020.47 1020.63 1020.81 1020.97 1021.12 1021.26 1021.39 1021.52 1021.64 1021.77 1021.89 1022.02 1022.14 1022.24 1022.31
1012.93 1012.89 1012.89 1012.91 1012.96 1013.02 1013.10 1013.20 1013.35 1013.55 1013.83 1014.19 1014.67 1015.23 1015.87 1016.56 1017.26 1017.94 1018.55 1019.08 1019.51 1019.83 1020.07 1020.23 1020.35 1020.45 1020.56 1020.68 1020.82 1020.98 1021.15 1021.32 1021.48 1021.63 1021.76 1021.87 1021.98 1022.09 1022.19 1022.30 1022.41 1022.50 1022.58 1022.62
1013.70 1013.65 1013.60 1013.55 1013.51 1013.48 1013.48 1013.52 1013.63 1013.84 1014.17 1014.62 1015.20 1015.88 1016.63 1017.40 1018.17 1018.88 1019.50 1020.00 1020.37 1020.63 1020.79 1020.89 1020.96 1021.02 1021.09 1021.19 1021.32 1021.48 1021.65 1021.82 1021.98 1022.12 1022.25 1022.35 1022.45 1022.55 1022.64 1022.73 1022.82 1022.88 1022.93 1022.93
1014.37 1014.31 1014.23 1014.15 1014.06 1013.98 1013.94 1013.95 1014.07 1014.30 1014.67 1015.18 1015.83 1016.59 1017.41 1018.24 1019.04 1019.76 1020.37 1020.84 1021.17 1021.38 1021.49 1021.54 1021.56 1021.59 1021.64 1021.72 1021.85 1022.00 1022.16 1022.33 1022.49 1022.63 1022.75 1022.85 1022.94 1023.03 1023.10 1023.18 1023.23 1023.27 1023.28 1023.23
1014.91 1014.83 1014.75 1014.66 1014.56 1014.47 1014.43 1014.45 1014.58 1014.85 1015.25 1015.81 1016.51 1017.31 1018.16 1019.02 1019.83 1020.55 1021.15 1021.59 1021.89 1022.07 1022.14 1022.16 1022.16 1022.16 1022.19 1022.27 1022.38 1022.53 1022.69 1022.86 1023.01 1023.15 1023.27 1023.36 1023.44 1023.51 1023.56 1023.61 1023.64 1023.64 1023.60 1023.51
1015.30 1015.22 1015.14 1015.06 1014.98 1014.92 1014.91 1014.98 1015.15 1015.45 1015.89 1016.48 1017.20 1018.01 1018.87 1019.72 1020.52 1021.23 1021.80 1022.22 1022.50 1022.65 1022.71 1022.71 1022.70 1022.69 1022.71 1022.78 1022.89 1023.03 1023.19 1023.36 1023.51 1023.64 1023.75 1023.84 1023.91 1023.96 1023.99 1024.01 1024.00 1023.96 1023.87 1023.73
1015.55 1015.47 1015.41 1015.37 1015.34 1015.34 1015.39 1015.52 1015.74 1016.08 1016.55 1017.15 1017.87 1018.67 1019.51 1020.34 1021.11 1021.78 1022.32 1022.72 1022.98 1023.12 1023.17 1023.16 1023.14 1023.13 1023.15 1023.21 1023.32 1023.46 1023.61 1023.78 1023.93 1024.07 1024.18 1024.26 1024.31 1024.34 1024.35 1024.34 1024.29 1024.21 1024.08 1023.90
1015.71 1015.65 1015.63 1015.64 1015.68 1015.76 1015.88 1016.08 1016.35 1016.74 1017.23 1017.83 1018.53 1019.30 1020.09 1020.87 1021.59 1022.22 1022.73 1023.10 1023.34 1023.46 1023.50 1023.49 1023.46 1023.44 1023.45 1023.51 1023.61 1023.75 1023.91 1024.07 1024.23 1024.37 1024.49 1024.57 1024.62 1024.64 1024.63 1024.59 1024.51 1024.39 1024.23 1024.01
1015.83 1015.80 1015.83 1015.91 1016.04 1016.20 1016.41 1016.68 1017.01 1017.42 1017.93 1018.51 1019.18 1019.90 1020.63 1021.35 1022.01 1022.59 1023.04 1023.38 1023.59 1023.69 1023.71 1023.69 1023.64 1023.61 1023.61 1023.66 1023.75 1023.88 1024.04 1024.22 1024.39 1024.54 1024.67 1024.76 1024.81 1024.83 1024.81 1024.75 1024.65 1024.51 1024.31 1024.07
1015.96 1015.98 1016.08 1016.25 1016.46 1016.71 1017.00 1017.33 1017.71 1018.14 1018.64 1019.20 1019.82 1020.48 1021.14 1021.79 1022.38 1022.89 1023.30 1023.58 1023.75 1023.83 1023.83 1023.77 1023.71 1023.65 1023.63 1023.66 1023.74 1023.87 1024.04 1024.22 1024.41 1024.59 1024.73 1024.85 1024.91 1024.94 1024.91 1024.84 1024.73 1024.57 1024.36 1024.10
1016.14 1016.23 1016.41 1016.66 1016.96 1017.29 1017.65 1018.03 1018.43 1018.87 1019.35 1019.88 1020.44 1021.03 1021.62 1022.19 1022.71 1023.16 1023.50 1023.74 1023.87 1023.91 1023.87 1023.79 1023.69 1023.61 1023.56 1023.57 1023.63 1023.76 1023.93 1024.13 1024.34 1024.54 1024.72 1024.86 1024.95 1024.99 1024.97 1024.90 1024.77 1024.60 1024.38 1024.11
1016.37 1016.55 1016.81 1017.14 1017.52 1017.91 1018.32 1018.73 1019.15 1019.58 1020.03 1020.51 1021.01 1021.53 1022.05 1022.55 1023.01 1023.39 1023.69 1023.88 1023.97 1023.97 1023.90 1023.79 1023.66 1023.54 1023.46 1023.45 1023.50 1023.62 1023.79 1024.01 1024.24 1024.47 1024.68 1024.85 1024.96 1025.02 1025.01 1024.94 1024.81 1024.63 1024.39 1024.12
1016.62 1016.88 1017.23 1017.63 1018.08 1018.52 1018.96 1019.39 1019.80 1020.22 1020.63 1021.06 1021.50 1021.96 1022.42 1022.86 1023.26 1023.60 1023.85 1024.01 1024.07 1024.05 1023.95 1023.80 1023.65 1023.50 1023.40 1023.36 1023.40 1023.51 1023.69 1023.91 1024.17 1024.42 1024.66 1024.85 1024.98 1025.05 1025.05 1024.98 1024.85 1024.66 1024.42 1024.14
1016.83 1017.18 1017.61 1018.08 1018.58 1019.06 1019.52 1019.95 1020.35 1020.74 1021.11 1021.50 1021.89 1022.30 1022.71 1023.10 1023.47 1023.77 1024.00 1024.14 1024.19 1024.14 1024.03 1023.87 1023.69 1023.53 1023.41 1023.36 1023.38 1023.48 1023.66 1023.89 1024.15 1024.42 1024.67 1024.88 1025.03 1025.10 1025.10 1025.03 1024.89 1024.70 1024.46 1024.18
1016.95 1017.39 1017.89 1018.43 1018.96 1019.47 1019.94 1020.37 1020.76 1021.11 1021.46 1021.81 1022.17 1022.54 1022.92 1023.29 1023.63 1023.92 1024.14 1024.28 1024.32 1024.27 1024.16 1023.99 1023.81 1023.63 1023.50 1023.44 1023.45 1023.55 1023.72 1023.95 1024.21 1024.48 1024.74 1024.95 1025.09 1025.17 1025.17 1025.09 1024.95 1024.75 1024.51 1024.23
1016.98 1017.49 1018.06 1018.64 1019.21 1019.74 1020.21 1020.64 1021.01 1021.35 1021.68 1022.01 1022.35 1022.71 1023.07 1023.43 1023.76 1024.06 1024.28 1024.42 1024.47 1024.43 1024.32 1024.16 1023.98 1023.81 1023.67 1023.60 1023.60 1023.69 1023.85 1024.07 1024.32 1024.59 1024.83 1025.03 1025.17 1025.24 1025.23 1025.15 1025.01 1024.81 1024.57 1024.31
1016.90 1017.48 1018.10 1018.72 1019.32 1019.86 1020.35 1020.77 1021.15 1021.49 1021.81 1022.13 1022.47 1022.82 1023.19 1023.55 1023.89 1024.19 1024.42 1024.57 1024.63 1024.61 1024.51 1024.36 1024.19 1024.02 1023.88 1023.80 1023.80 1023.87 1024.02 1024.22 1024.46 1024.71 1024.94 1025.13 1025.26 1025.31 1025.30 1025.22 1025.08 1024.89 1024.67 1024.43
1016.78 1017.41 1018.07 1018.72 1019.34 1019.90 1020.39 1020.83 1021.21 1021.56 1021.89 1022.23 1022.57 1022.93 1023.31 1023.68 1024.03 1024.33 1024.57 1024.73 1024.81 1024.79 1024.71 1024.56 1024.40 1024.23 1024.10 1024.02 1024.01 1024.07 1024.20 1024.38 1024.60 1024.83 1025.04 1025.22 1025.34 1025.39 1025.38 1025.31 1025.18 1025.01 1024.81 1024.60
1016.68 1017.35 1018.03 1018.70 1019.33 1019.90 1020.41 1020.85 1021.25 1021.62 1021.97 1022.33 1022.70 1023.07 1023.46 1023.84 1024.19 1024.50 1024.74 1024.90 1024.98 1024.97 1024.88 1024.75 1024.59 1024.43 1024.30 1024.21 1024.19 1024.25 1024.36 1024.53 1024.73 1024.95 1025.15 1025.31 1025.43 1025.49 1025.49 1025.44 1025.33 1025.19 1025.03 1024.85
1016.67 1017.36 1018.05 1018.72 1019.35 1019.93 1020.44 1020.91 1021.33 1021.72 1022.09 1022.47 1022.86 1023.25 1023.65 1024.03 1024.38 1024.68 1024.92 1025.07 1025.14 1025.12 1025.04 1024.91 1024.75 1024.59 1024.46 1024.38 1024.36 1024.41 1024.52 1024.68 1024.87 1025.08 1025.27 1025.44 1025.57 1025.64 1025.67 1025.64 1025.57 1025.46 1025.34 1025.19
1016.80 1017.49 1018.17 1018.83 1019.46 1020.03 1020.54 1021.01 1021.45 1021.86 1022.26 1022.66 1023.06 1023.46 1023.86 1024.24 1024.58 1024.86 1025.08 1025.22 1025.27 1025.25 1025.16 1025.03 1024.88 1024.73 1024.61 1024.54 1024.53 1024.58 1024.69 1024.85 1025.04 1025.25 1025.45 1025.63 1025.77 1025.87 1025.92 1025.92 1025.89 1025.83 1025.74 1025.63
1017.08 1017.74 1018.40 1019.04 1019.64 1020.19 1020.71 1021.18 1021.62 1022.04 1022.45 1022.86 1023.27 1023.68 1024.07 1024.43 1024.75 1025.02 1025.21 1025.33 1025.37 1025.34 1025.26 1025.13 1024.99 1024.86 1024.76 1024.71 1024.71 1024.78 1024.90 1025.07 1025.27 1025.48 1025.70 1025.89 1026.06 1026.18 1026.26 1026.30 1026.31 1026.28 1026.22 1026.15
1017.45 1018.08 1018.71 1019.31 1019.88 1020.41 1020.91 1021.37 1021.81 1022.23 1022.65 1023.06 1023.46 1023.86 1024.23 1024.57 1024.87 1025.11 1025.29 1025.40 1025.43 1025.40 1025.33 1025.22 1025.11 1025.01 1024.93 1024.91 1024.94 1025.03 1025.17 1025.35 1025.57 1025.80 1026.03 1026.24 1026.43 1026.58 1026.69 1026.76 1026.79 1026.79 1026.77 1026.71
1017.85 1018.45 1019.04 1019.60 1020.14 1020.64 1021.11 1021.56 1021.98 1022.40 1022.80 1023.20 1023.59 1023.97 1024.32 1024.64 1024.92 1025.14 1025.31 1025.40 1025.44 1025.43 1025.38 1025.31 1025.24 1025.18 1025.15 1025.16 1025.23 1025.35 1025.51 1025.72 1025.95 1026.19 1026.43 1026.66 1026.86 1027.02 1027.15 1027.25 1027.31 1027.33 1027.32 1027.28
1018.20 1018.77 1019.32 1019.85 1020.35 1020.83 1021.28 1021.70 1022.11 1022.51 1022.90 1023.27 1023.64 1024.00 1024.33 1024.62 1024.88 1025.09 1025.25 1025.36 1025.42 1025.44 1025.43 1025.41 1025.39 1025.38 1025.41 1025.47 1025.58 1025.73 1025.92 1026.14 1026.38 1026.63 1026.87 1027.10 1027.31 1027.48 1027.62 1027.73 1027.80 1027.84 1027.84 1027.82
1018.42 1018.97 1019.50 1020.01 1020.49 1020.95 1021.38 1021.78 1022.17 1022.55 1022.91 1023.27 1023.61 1023.94 1024.24 1024.52 1024.77 1024.98 1025.15 1025.28 1025.37 1025.43 1025.48 1025.52 1025.56 1025.62 1025.70 1025.82 1025.96 1026.14 1026.35 1026.58 1026.83 1027.07 1027.31 1027.53 1027.73 1027.90 1028.04 1028.15 1028.23 1028.28 1028.29 1028.27
Thickness
5631 5639 5643 5642 5644 5651 5649 5644 5637 5637 5637 5636 5636 5634 5632 5631 5630 5627 5623 5619 5614 5610 5607 5603 5599 5595 5591 5586 5582 5577 5571 5564 5556 5549 5543 5537 5530 5524 5517 5511 5505 5498 5492 5487
5618 5627 5629 5627 5630 5636 5639 5639 5637 5634 5630 5631 5627 5624 5620 5618 5616 5613 5608 5603 5598 5594 5590 5586 5582 5577 5572 5567 5562 5558 5552 5544 5538 5531 5525 5518 5511 5505 5498 5492 5486 5481 5475 5470
5599 5609 5615 5608 5612 5618 5619 5622 5628 5624 5622 5618 5613 5610 5605 5603 5601 5597 5591 5586 5582 5576 5571 5567 5562 5558 5553 5548 5544 5538 5532 5525 5519 5513 5506 5500 5494 5487 5481 5475 5470 5465 5460 5455
5585 5594 5588 5598 5609 5611 5608 5608 5614 5614 5611 5606 5598 5590 5586 5585 5582 5578 5573 5568 5562 5557 5553 5548 5543 5539 5534 5530 5525 5520 5513 5507 5501 5495 5488 5482 5476 5470 5464 5459 5454 5450 5445 5441
5571 5576 5580 5590 5598 5598 5596 5594 5598 5598 5595 5589 5584 5579 5571 5567 5564 5560 5555 5549 5544 5540 5535 5531 5526 5522 5517 5512 5507 5502 5495 5489 5483 5477 5471 5465 5459 5453 5449 5444 5439 5435 5431 5427
5564 5568 5568 5580 5587 5591 5588 5582 5586 5586 5582 5578 5575 5571 5561 5551 5547 5543 5538 5533 5529 5524 5520 5515 5510 5506 5501 5495 5490 5484 5478 5473 5467 5461 5456 5450 5444 5439 5434 5430 5425 5422 5418 5414
5557 5560 5566 5571 5575 5581 5573 5574 5576 5574 5571 5567 5563 5556 5546 5538 5533 5528 5523 5518 5514 5509 5505 5500 5495 5491 5485 5480 5474 5469 5464 5458 5453 5447 5441 5436 5430 5425 5421 5416 5412 5408 5404 5401
5548 5552 5554 5559 5565 5565 5562 5562 5563 5560 5557 5552 5544 5537 5531 5525 5519 5514 5509 5504 5500 5496 5490 5485 5482 5477 5472 5466 5461 5456 5451 5446 5440 5435 5430 5424 5418 5412 5407 5402 5398 5394 5391 5389
5544 5545 5547 5547 5548 5548 5550 5550 5549 5546 5544 5540 5533 5525 5519 5512 5507 5501 5497 5492 5487 5483 5478 5474 5470 5466 5460 5455 5450 5445 5440 5434 5428 5423 5417 5411 5406 5400 5394 5389 5385 5382 5379 5378
5541 5544 5543 5541 5540 5540 5541 5540 5538 5536 5534 5530 5522 5514 5507 5501 5495 5490 5485 5481 5476 5472 5468 5464 5460 5456 5451 5447 5442 5436 5430 5423 5417 5411 5405 5399 5394 5389 5384 5379 5375 5372 5371 5370
5538 5539 5537 5535 5532 5530 5529 5529 5527 5525 5523 5518 5512 5505 5498 5491 5485 5480 5476 5471 5468 5464 5460 5456 5452 5448 5444 5439 5434 5427 5421 5414 5407 5400 5394 5388 5383 5378 5375 5371 5368 5365 5364 5363
5534 5536 5531 5528 5524 5523 5521 5519 5518 5515 5510 5506 5502 5495 5488 5482 5477 5472 5468 5465 5461 5457 5453 5449 5446 5441 5437 5432 5426 5419 5411 5404 5397 5390 5384 5379 5375 5371 5368 5366 5364 5362 5360 5360
5531 5529 5524 5521 5517 5516 5512 5510 5508 5505 5502 5496 5490 5486 5480 5474 5470 5466 5463 5459 5455 5452 5448 5444 5439 5435 5430 5424 5417 5410 5402 5395 5389 5383 5378 5373 5369 5365 5363 5361 5360 5359 5359 5359
5525 5522 5518 5515 5511 5509 5506 5502 5499 5496 5491 5487 5482 5478 5474 5470 5466 5462 5459 5455 5452 5448 5444 5439 5433 5428 5423 5416 5410 5402 5395 5389 5383 5377 5373 5369 5365 5362 5359 5358 5357 5357 5358 5358
5522 5520 5515 5510 5506 5502 5499 5496 5492 5487 5483 5479 5476 5473 5470 5466 5463 5460 5456 5453 5448 5444 5439 5433 5428 5422 5416 5410 5403 5397 5391 5384 5379 5374 5370 5366 5363 5360 5358 5357 5356 5356 5357 5359
5516 5513 5510 5507 5502 5498 5494 5491 5487 5482 5479 5476 5472 5470 5467 5464 5460 5457 5453 5449 5444 5438 5433 5428 5422 5417 5412 5406 5399 5393 5388 5383 5378 5373 5369 5366 5363 5361 5359 5357 5356 5357 5358 5359
5513 5508 5505 5502 5498 5494 5490 5487 5484 5480 5476 5473 5470 5467 5464 5461 5457 5453 5449 5445 5440 5434 5428 5423 5418 5414 5409 5404 5398 5392 5387 5383 5378 5373 5370 5367 5364 5362 5360 5358 5358 5359 5360 5361
5518 5513 5508 5503 5499 5493 5489 5486 5482 5478 5475 5472 5469 5466 5462 5459 5455 5450 5446 5441 5436 5431 5425 5420 5416 5412 5408 5403 5397 5392 5387 5383 5378 5375 5371 5369 5366 5364 5362 5361 5361 5361 5363 5365
5515 5510 5505 5501 5497 5492 5488 5484 5480 5477 5474 5471 5468 5465 5461 5458 5453 5448 5443 5439 5435 5430 5424 5420 5416 5412 5407 5403 5398 5393 5389 5384 5380 5376 5373 5371 5368 5366 5365 5364 5364 5364 5366 5368
5513 5508 5504 5499 5495 5491 5487 5483 5479 5476 5473 5471 5467 5463 5459 5456 5452 5447 5443 5438 5432 5428 5424 5420 5416 5412 5408 5404 5400 5395 5391 5386 5383 5379 5376 5374 5372 5370 5368 5368 5367 5368 5369 5370
5511 5507 5502 5498 5494 5490 5487 5483 5479 5475 5473 5471 5468 5464 5460 5455 5452 5447 5443 5438 5434 5430 5426 5422 5418 5414 5410 5406 5403 5398 5394 5390 5386 5383 5380 5378 5376 5374 5372 5371 5371 5370 5371 5372
5509 5505 5501 5497 5492 5488 5485 5482 5479 5476 5473 5470 5468 5464 5460 5456 5452 5448 5444 5439 5436 5433 5428 5424 5421 5418 5414 5410 5405 5401 5397 5393 5389 5386 5384 5382 5380 5378 5376 5375 5374 5373 5373 5374
5507 5503 5500 5496 5492 5487 5483 5481 5479 5477 5474 5471 5468 5465 5462 5458 5454 5450 5446 5442 5439 5436 5432 5428 5425 5421 5417 5413 5409 5405 5401 5397 5394 5391 5388 5386 5384 5382 5380 5378 5376 5375 5375 5376
5504 5501 5497 5494 5490 5486 5481 5479 5478 5477 5475 5473 5471 5468 5464 5459 5455 5452 5450 5447 5443 5440 5435 5432 5429 5425 5421 5416 5412 5409 5405 5402 5399 5396 5393 5390 5388 5386 5384 5381 5379 5378 5377 5377
5502 5498 5494 5491 5488 5485 5481 5479 5477 5475 5474 5472 5471 5468 5466 5464 5461 5457 5453 5451 5447 5444 5440 5436 5433 5429 5425 5421 5417 5414 5410 5407 5404 5401 5398 5395 5392 5390 5387 5385 5383 5381 5380 5380
5499 5496 5494 5492 5489 5484 5481 5479 5476 5474 5473 5471 5470 5468 5467 5465 5463 5460 5457 5454 5451 5448 5445 5441 5438 5435 5431 5427 5423 5419 5416 5412 5409 5406 5403 5399 5397 5394 5391 5389 5386 5384 5383 5383
5496 5493 5490 5487 5485 5484 5482 5480 5478 5476 5475 5474 5472 5470 5468 5467 5465 5462 5460 5458 5455 5452 5449 5446 5443 5440 5436 5433 5429 5426 5422 5419 5415 5412 5408 5405 5402 5399 5396 5393 5391 5389 5387 5387